Location: Berg
(48.4333°N, 13.9167°E)
Time: 08:56:40
(UTC+00:00)

CZ-4C R/B - Pass Details

Date: 18 September 2020
Orbit: 626 x 1376 km, 63.4° (Epoch: 24 October)

Event Time Altitude Azimuth Distance (km) Brightness Sun altitude
Exits shadow 23:02:00 26° 23° (NNE) 1,716 4.2 -40.2°
Drops below altitude 10° 23:04:59 10° 37° (NE) 2,731 5.3 -40.1°
Sets 23:07:57 0° 43° (NE) 3,812 6.2 -40.1°
